Regional Weather Roundup
Issued by NWS Northern Indiana

Home | Current Version | Previous Version | Text Only | Print | Product List | Glossary Off
Versions: 1 2 3 4 5 6 7 8 9 10 11 12 13 14 15 16 17 18 19 20 21 22 23 24 25 26 27 28 29 30 31 32 33 34 35 36 37 38 39 40 41 42 43 44 45 46 47 48 49 50

000
ASUS43 KIWX 280810
RWRIWX

KIWX WEATHER ROUNDUP
NATIONAL WEATHER SERVICE NORTHERN INDIANA
300 AM EST WED JAN 28 2015

NOTE: "FAIR" INDICATES FEW OR NO CLOUDS BELOW 12,000 FEET WITH NO
SIGNIFICANT WEATHER AND/OR OBSTRUCTIONS TO VISIBILITY.

* THESE STATIONS ARE NOT UNDER NWS QUALITY CONTROL. THEY ALSO MAY NOT
  REPORT WEATHER SUCH AS PRECIPITATION OR FOG.

INZ001>027-280900-
NORTHERN INDIANA

CITY           SKY/WX    TMP DP  RH WIND       PRES   REMARKS
GARY*          MOCLDY    24  17  72 CALM      30.29R
VALPARAISO     PTCLDY    17  14  88 CALM      30.27R
MICHIGAN CITY* MOCLDY    18  12  79 CALM      30.28R
LAPORTE*       PTCLDY    19  15  84 CALM      30.27S
KNOX*          PTCLDY    15   8  71 CALM      30.27S
SOUTH BEND     NOT AVBL
GOSHEN         MOCLDY    14   9  80 S3        30.26R
MONTICELLO*    PTCLDY    15  13  93 CALM      30.27S
LOGANSPORT*    PTCLDY    10   9  92 E3        30.29R
ROCHESTER*     MOCLDY    14  12  92 CALM      30.28S
WARSAW*        MOCLDY    12  10  92 CALM      30.26S
ANGOLA*        CLEAR      7   3  85 CALM      30.24R
FORT WAYNE     MOCLDY     9   6  88 CALM      30.28R
HUNTINGTON*    PTCLDY    10   4  78 CALM      30.28R
PERU/GRISSOM   MOCLDY    10   7  88 CALM      30.27R
MARION*        PTCLDY    13  11  90 CALM      30.29R

$$
INZ028>050-280900-
CENTRAL INDIANA

CITY           SKY/WX    TMP DP  RH WIND       PRES   REMARKS
LAFAYETTE      PTCLDY    16  14  92 CALM      30.29R
KOKOMO*        PTCLDY    10   7  85 CALM      30.27S
MUNCIE*        PTCLDY    11   7  84 CALM      30.27R FOG
INDIANAPOLIS   CLEAR     18  12  77 CALM      30.27S

$$
MIZ043>046-050>051-056>058-064>065-071>073-077>080-280900-
SOUTHWEST LOWER MICHIGAN

CITY           SKY/WX    TMP DP  RH WIND       PRES   REMARKS
BATTLE CREEK   PTCLDY    12   5  73 CALM      30.25R
BENTON HARBOR  PTCLDY    14  11  87 E3        30.28R
COLDWATER*     PTCLDY     8   5  89 CALM      30.25R
HILLSDALE*     PTCLDY     5   2  86 CALM      30.22R
HOLLAND        CLEAR     15  11  83 CALM      30.28R
GRAND RAPIDS   MOCLDY    12   7  80 CALM      30.26R
KALAMAZOO      FAIR      11   6  81 CALM      30.27R
STURGIS*       PTCLDY     9   7  92 CALM      30.26R
THREE RIVERS*  FAIR      11   8  88 CALM      30.27R

$$
OHZ001>008-015>018-024>025-280900-
NORTHWEST OHIO

CITY           SKY/WX    TMP DP  RH WIND       PRES   REMARKS
WAUSEON*       FAIR       9   7  92 W6        30.26R WCI  -1
DEFIANCE       PTCLDY     5   0  79 CALM      30.28R
FINDLAY        PTCLDY     5   0  79 CALM      30.24S
TOLEDO EXPRESS CLEAR      9   5  84 CALM      30.26R
TOLEDO METCALF PTCLDY    14   7  73 CALM      30.27R
LIMA           PTCLDY     4  -2  76 CALM      30.24R HAZE

$$
AND FOR LAKE MICHIGAN COASTAL AND OPEN LAKE BUOY OBSERVATIONS

STATION/POSITION TEMP    WIND        PRES    VSBY  WAVE
                 AIR SEA DIR/SP/G                  HT/PER
                 (F)     (DEG/KT/KT) (MB)    (MI)  (FT/S)
CALUMET HARBOR    26     180/  3/  4   N/A
MICHIGAN CITY     22     130/  6/  8   N/A
SAINT JOSEPH      21     120/  4/  5 1026.1R

$$
&&



USA.gov is the U.S. government's official web portal to all federal, state and local government web resources and services.